Terminal Aerodrome Forecast
Issued by NWS Grand Forks, ND

Home | Current Version | Previous Version | Text Only | Print | Product List | Glossary On
Versions: 1 2 3 4 5 6 7 8 9 10 11 12 13 14 15 16
504
FTUS43 KFGF 061503 AAB
TAFFAR
TAF AMD
KFAR 061503Z 0615/0712 24011KT P6SM FEW120
     FM061600 34022G32KT P6SM BKN120
     FM070200 01013KT P6SM SCT250
     FM070300 01009KT P6SM SCT250
     FM070700 35005KT P6SM FEW250=

USA.gov is the U.S. government's official web portal to all federal, state and local government web resources and services.